FW7053 Taipei TW current weather conditions

sailwx.info

Wind from 028

Air temperature 21.7° C
Dewpoint 20.8° C

Last reported at 2020-Sep-26 17:06 UTC.
Time now 2020-Sep-26 18:08 UTC

Location: N 24°59' E 121°35'.
View on Google Maps.

See reports from other nearby stations

  
Tides and Currents Weather Stations Pressure Air Temp Water Temp Dewpoint Dewpoint Depression Visibility Wind Speed Wind Dir Waves Ship Positions
date/time (UTC)wind fromknots sea level pressurealtimeterstation pressurevisibilityair tempwater tempwave heightnotes
2020-Sep-26 17:06 028 21.7
2020-Sep-26 16:51 028 21.7
2020-Sep-26 16:36 028 21.7
2020-Sep-26 16:20 028 21.7
2020-Sep-26 16:05 028 21.7
2020-Sep-26 15:50 043 21.7
2020-Sep-26 15:35 044 21.7
2020-Sep-26 15:20 042 22.2
2020-Sep-26 15:05 063 22.2
2020-Sep-26 14:50 026 22.8
2020-Sep-26 14:35 026 22.8
2020-Sep-26 14:20 036 22.8
2020-Sep-26 14:04 050 22.8
2020-Sep-26 13:50 014 22.8
2020-Sep-26 13:34 014 22.8
2020-Sep-26 13:19 014 22.8
2020-Sep-26 13:04 014 22.8
2020-Sep-26 12:49 018 22.8
2020-Sep-26 12:34 020 22.8
2020-Sep-26 12:19 020 22.8
2020-Sep-26 12:04 020 23.3
2020-Sep-26 11:49 020 23.3
2020-Sep-26 11:34 020 23.3
2020-Sep-26 11:19 023 23.3
2020-Sep-26 11:04 032 23.3
2020-Sep-26 10:48 034 22.8
2020-Sep-26 10:33 034 23.3
2020-Sep-26 10:18 034 23.3
2020-Sep-26 10:03 034 23.3
2020-Sep-26 09:48 038 23.3
2020-Sep-26 09:33 039 23.3
2020-Sep-26 09:18 021 23.3
2020-Sep-26 09:03 041 23.3
2020-Sep-26 08:48 059 23.9
2020-Sep-26 08:33 046 23.9
2020-Sep-26 08:18 008 23.9
2020-Sep-26 08:03 009 23.9
2020-Sep-26 07:48 009 23.9
2020-Sep-26 07:33 009 23.9
2020-Sep-26 07:18 008 23.9
2020-Sep-26 07:03 008 24.4
2020-Sep-26 06:48 017 25.0
2020-Sep-26 06:32 021 25.0
2020-Sep-26 06:17 021 25.0
2020-Sep-26 06:04 056 25.0
2020-Sep-26 05:47 056 25.0
2020-Sep-26 05:32 051 25.0
2020-Sep-26 05:17 007 23.9
2020-Sep-26 05:02 007 23.9
2020-Sep-26 04:47 007 23.9
2020-Sep-26 04:32 007 23.9
2020-Sep-26 04:17 007 23.9
2020-Sep-26 04:02 007 23.9
2020-Sep-26 03:47 007 23.9
2020-Sep-26 03:32 007 23.9
2020-Sep-26 03:17 008 23.9
2020-Sep-26 03:02 026 23.9
2020-Sep-26 02:47 020 23.3
2020-Sep-26 02:32 059 23.3
2020-Sep-26 02:17 059 23.3
2020-Sep-26 02:02 059 23.9
2020-Sep-26 01:46 059 23.3
2020-Sep-26 01:31 059 23.3
2020-Sep-26 01:16 059 22.8
2020-Sep-26 01:01 059 23.3
2020-Sep-26 00:46 059 23.3
2020-Sep-26 00:31 048 23.3
2020-Sep-26 00:16 038 23.3
2020-Sep-26 00:01 038 23.3
2020-Sep-25 23:46 038 23.3
2020-Sep-25 23:31 032 23.3
2020-Sep-25 23:16 030 23.3
2020-Sep-25 23:01 015 22.8
2020-Sep-25 22:46 015 22.8
2020-Sep-25 22:31 015 22.8
2020-Sep-25 22:16 015 22.8
2020-Sep-25 22:01 015 22.8
2020-Sep-25 21:46 014 22.2
2020-Sep-25 21:30 015 22.2
2020-Sep-25 21:15 015 22.8
2020-Sep-25 21:00 015 22.8
2020-Sep-25 20:45 015 22.8
2020-Sep-25 20:30 015 22.8
2020-Sep-25 20:15 015 22.8
2020-Sep-25 20:00 015 22.8
2020-Sep-25 19:45 015 22.8
2020-Sep-25 19:30 015 22.8
2020-Sep-25 19:15 015 22.8
2020-Sep-25 19:00 015 23.3
2020-Sep-25 18:45 015 23.3
2020-Sep-25 18:30 015 23.3
2020-Sep-25 18:15 015 23.3
2020-Sep-25 18:00 015 22.8
2020-Sep-25 17:45 015 23.3
2020-Sep-25 17:30 015 23.3
2020-Sep-25 17:15 015 23.3
2020-Sep-25 17:00 015 23.3
2020-Sep-25 16:45 014 22.8
2020-Sep-25 16:30 014 22.8
2020-Sep-25 16:14 014 23.3
2020-Sep-25 15:59 014 23.3
2020-Sep-25 15:44 014 22.8
2020-Sep-25 15:29 014 23.3
2020-Sep-25 15:14 014 23.3
2020-Sep-25 14:59 014 23.3
2020-Sep-25 14:44 014 23.3
2020-Sep-25 14:29 014 23.3
2020-Sep-25 14:14 014 23.3
2020-Sep-25 13:59 014 23.3
2020-Sep-25 13:44 014 23.3
2020-Sep-25 13:29 014 23.3
2020-Sep-25 13:14 014 23.3
2020-Sep-25 12:59 014 23.3
2020-Sep-25 12:44 014 23.3
2020-Sep-25 12:29 014 23.3
2020-Sep-25 12:14 014 23.3
2020-Sep-25 12:07 014 23.3
2020-Sep-25 11:57 014 23.3
2020-Sep-25 11:47 014 23.3
2020-Sep-25 11:37 014 23.3
2020-Sep-25 11:27 014 23.9
2020-Sep-25 11:17 014 23.9
2020-Sep-25 11:07 014 23.3
2020-Sep-25 10:57 014 23.3
2020-Sep-25 10:47 014 23.3
2020-Sep-25 10:37 014 23.3
2020-Sep-25 10:27 014 23.3
2020-Sep-25 10:17 014 23.3
2020-Sep-25 10:07 014 23.3
2020-Sep-25 09:57 014 23.3
2020-Sep-25 09:47 014 23.3
2020-Sep-25 09:36 014 23.3
2020-Sep-25 09:26 014 23.3
2020-Sep-25 09:16 014 23.3
2020-Sep-25 09:06 014 23.3
2020-Sep-25 08:56 014 23.3
2020-Sep-25 08:46 014 23.9
2020-Sep-25 08:36 014 23.3
2020-Sep-25 08:26 014 23.9
2020-Sep-25 08:16 014 23.9
2020-Sep-25 08:06 014 23.9
2020-Sep-25 07:56 014 24.4
2020-Sep-25 07:46 014 24.4
2020-Sep-25 07:36 014 24.4
2020-Sep-25 07:26 014 23.9
2020-Sep-25 07:16 014 23.9
2020-Sep-25 07:05 014 23.9
2020-Sep-25 06:55 014 23.9
2020-Sep-25 06:45 014 23.9
2020-Sep-25 06:35 014 23.3
2020-Sep-25 06:25 014 23.9
2020-Sep-25 06:15 014 23.9
2020-Sep-25 06:05 014 23.9
2020-Sep-25 05:55 014 23.9
2020-Sep-25 05:45 014 23.9
2020-Sep-25 05:34 014 23.9
2020-Sep-25 05:24 014 23.9
2020-Sep-25 05:14 014 24.4
2020-Sep-25 05:04 014 24.4
2020-Sep-25 04:54 014 24.4
2020-Sep-25 04:44 014 24.4
2020-Sep-25 04:34 014 23.9
2020-Sep-25 04:24 014 23.9
2020-Sep-25 04:14 014 23.9
2020-Sep-25 04:04 014 23.9
2020-Sep-25 03:54 014 23.9
2020-Sep-25 03:43 014 23.9
2020-Sep-25 03:33 014 23.9
2020-Sep-25 03:23 014 23.9
2020-Sep-25 03:13 014 23.9
2020-Sep-25 03:03 014 23.9
2020-Sep-25 02:53 014 23.3
2020-Sep-25 02:43 014 23.3
2020-Sep-25 02:33 014 23.3
2020-Sep-25 02:23 014 23.3
2020-Sep-25 02:12 014 23.3
2020-Sep-25 02:02 014 23.3
2020-Sep-25 01:52 014 23.3
2020-Sep-25 01:42 014 23.3
2020-Sep-25 01:32 014 23.3
2020-Sep-25 01:22 014 23.3
2020-Sep-25 01:12 014 22.8
2020-Sep-25 01:02 014 22.8
2020-Sep-25 00:52 014 22.8
2020-Sep-25 00:41 014 22.2
2020-Sep-25 00:31 014 22.2
2020-Sep-25 00:21 014 22.2
2020-Sep-25 00:11 014 22.2
2020-Sep-25 00:01 014 22.8
2020-Sep-24 23:51 014 22.2
2020-Sep-24 23:41 015 22.2
2020-Sep-24 23:30 015 22.2
2020-Sep-24 23:20 015 22.2
2020-Sep-24 23:10 015 22.2
2020-Sep-24 23:00 015 22.2
2020-Sep-24 22:50 015 22.2
2020-Sep-24 22:40 015 21.7
2020-Sep-24 22:30 015 21.7
2020-Sep-24 22:20 015 21.7
2020-Sep-24 22:10 015 21.7
2020-Sep-24 22:00 015 21.7
2020-Sep-24 21:49 015 21.7
2020-Sep-24 21:39 015 22.2
2020-Sep-24 21:29 015 21.7
2020-Sep-24 21:19 015 21.7
2020-Sep-24 21:09 015 21.7
2020-Sep-24 20:59 015 21.7
2020-Sep-24 20:49 015 21.7
2020-Sep-24 20:38 015 21.7
2020-Sep-24 20:29 015 22.2
2020-Sep-24 20:18 015 22.2
2020-Sep-24 20:08 015 22.2
2020-Sep-24 19:58 015 22.2
2020-Sep-24 19:48 015 22.2
2020-Sep-24 19:38 015 22.2
2020-Sep-24 19:28 015 22.2
2020-Sep-24 19:18 015 22.2
2020-Sep-24 19:08 015 22.2
2020-Sep-24 18:57 015 22.2
2020-Sep-24 18:47 015 22.2
2020-Sep-24 18:37 015 22.2
2020-Sep-24 18:27 015 22.2
2020-Sep-24 18:17 016 22.2
2020-Sep-24 18:07 016 22.8